Time,TemperatureF,DewpointF,PressureIn,WindDirection,WindDirectionDegrees,WindSpeedMPH,WindSpeedGustMPH,Humidity,HourlyPrecipIn,Conditions,Clouds,dailyrainin,SoftwareType,DateUTC
2013-02-07 00:01:00,41.8,18.0,30.14,South,184,3.0,5.0,39,0.00,,,0.00,weatherlink.com 1.10,2013-02-07 05:01:00,
2013-02-07 00:16:00,41.4,19.0,30.13,South,183,4.0,7.0,40,0.00,,,0.00,weatherlink.com 1.10,2013-02-07 05:16:00,
2013-02-07 00:31:00,41.3,18.0,30.13,South,184,4.0,7.0,40,0.00,,,0.00,weatherlink.com 1.10,2013-02-07 05:31:00,
2013-02-07 00:46:00,40.5,18.0,30.14,South,183,5.0,5.0,41,0.00,,,0.00,weatherlink.com 1.10,2013-02-07 05:46:00,
2013-02-07 01:01:00,40.5,18.0,30.14,South,183,4.0,9.0,41,0.00,,,0.00,weatherlink.com 1.10,2013-02-07 06:01:00,
2013-02-07 01:17:00,40.3,19.0,30.13,South,184,5.0,6.0,42,0.00,,,0.00,weatherlink.com 1.10,2013-02-07 06:17:00,
2013-02-07 01:32:00,40.2,19.0,30.13,South,183,4.0,6.0,43,0.00,,,0.00,weatherlink.com 1.10,2013-02-07 06:32:00,
2013-02-07 01:47:00,39.6,20.0,30.14,South,186,5.0,7.0,45,0.00,,,0.00,weatherlink.com 1.10,2013-02-07 06:47:00,
2013-02-07 02:01:00,39.4,20.0,30.14,South,185,3.0,7.0,46,0.00,,,0.00,weatherlink.com 1.10,2013-02-07 07:01:00,
2013-02-07 02:16:00,38.8,21.0,30.14,South,184,4.0,5.0,49,0.00,,,0.00,weatherlink.com 1.10,2013-02-07 07:16:00,
2013-02-07 02:31:00,38.7,21.0,30.14,South,184,4.0,7.0,49,0.00,,,0.00,weatherlink.com 1.10,2013-02-07 07:31:00,
2013-02-07 02:46:00,38.1,21.0,30.14,South,183,4.0,7.0,51,0.00,,,0.00,weatherlink.com 1.10,2013-02-07 07:46:00,
2013-02-07 03:01:00,38.2,21.0,30.14,South,181,3.0,7.0,51,0.00,,,0.00,weatherlink.com 1.10,2013-02-07 08:01:00,
2013-02-07 03:16:00,38.2,21.0,30.14,South,183,4.0,6.0,51,0.00,,,0.00,weatherlink.com 1.10,2013-02-07 08:16:00,
2013-02-07 03:32:00,38.0,21.0,30.14,South,180,3.0,8.0,51,0.00,,,0.00,weatherlink.com 1.10,2013-02-07 08:32:00,
2013-02-07 03:47:00,37.6,21.0,30.14,South,181,3.0,6.0,52,0.00,,,0.00,weatherlink.com 1.10,2013-02-07 08:47:00,
2013-02-07 04:02:00,37.1,22.0,30.15,South,185,6.0,8.0,54,0.00,,,0.00,weatherlink.com 1.10,2013-02-07 09:02:00,
2013-02-07 04:17:00,36.2,22.0,30.16,South,181,3.0,6.0,56,0.00,,,0.00,weatherlink.com 1.10,2013-02-07 09:17:00,
2013-02-07 04:32:00,36.1,22.0,30.16,South,181,2.0,4.0,56,0.00,,,0.00,weatherlink.com 1.10,2013-02-07 09:32:00,
2013-02-07 04:47:00,36.0,22.0,30.16,South,181,3.0,4.0,57,0.00,,,0.00,weatherlink.com 1.10,2013-02-07 09:47:00,
2013-02-07 05:02:00,36.2,22.0,30.16,South,181,2.0,4.0,57,0.00,,,0.00,weatherlink.com 1.10,2013-02-07 10:02:00,
2013-02-07 05:17:00,36.3,22.0,30.16,South,181,2.0,4.0,57,0.00,,,0.00,weatherlink.com 1.10,2013-02-07 10:17:00,
2013-02-07 05:32:00,36.1,22.0,30.16,South,181,2.0,4.0,57,0.00,,,0.00,weatherlink.com 1.10,2013-02-07 10:32:00,
2013-02-07 05:47:00,36.1,22.0,30.15,South,181,3.0,5.0,58,0.00,,,0.00,weatherlink.com 1.10,2013-02-07 10:47:00,
2013-02-07 06:02:00,36.0,23.0,30.15,South,181,2.0,3.0,59,0.00,,,0.00,weatherlink.com 1.10,2013-02-07 11:02:00,
2013-02-07 06:17:00,36.2,23.0,30.14,South,181,4.0,7.0,60,0.00,,,0.00,weatherlink.com 1.10,2013-02-07 11:17:00,
2013-02-07 06:32:00,36.1,23.0,30.14,South,181,3.0,5.0,60,0.00,,,0.00,weatherlink.com 1.10,2013-02-07 11:32:00,
2013-02-07 06:47:00,36.1,23.0,30.14,South,181,2.0,4.0,60,0.00,,,0.00,weatherlink.com 1.10,2013-02-07 11:47:00,
2013-02-07 07:02:00,36.2,23.0,30.14,South,181,3.0,5.0,60,0.00,,,0.00,weatherlink.com 1.10,2013-02-07 12:02:00,
2013-02-07 07:17:00,36.3,24.0,30.14,South,181,6.0,6.0,61,0.00,,,0.00,weatherlink.com 1.10,2013-02-07 12:17:00,
2013-02-07 07:32:00,36.1,24.0,30.14,South,181,3.0,4.0,61,0.00,,,0.00,weatherlink.com 1.10,2013-02-07 12:32:00,
2013-02-07 07:47:00,36.4,24.0,30.15,South,181,2.0,4.0,60,0.00,,,0.00,weatherlink.com 1.10,2013-02-07 12:47:00,
2013-02-07 08:02:00,36.3,24.0,30.15,South,181,3.0,5.0,62,0.00,,,0.00,weatherlink.com 1.10,2013-02-07 13:02:00,
2013-02-07 08:17:00,36.4,25.0,30.16,South,181,4.0,6.0,63,0.00,,,0.00,weatherlink.com 1.10,2013-02-07 13:17:00,
2013-02-07 08:32:00,36.7,24.0,30.16,South,181,4.0,4.0,61,0.00,,,0.00,weatherlink.com 1.10,2013-02-07 13:32:00,
2013-02-07 08:47:00,36.9,25.0,30.16,South,181,4.0,5.0,63,0.00,,,0.00,weatherlink.com 1.10,2013-02-07 13:47:00,
2013-02-07 09:02:00,36.7,25.0,30.16,South,184,5.0,7.0,62,0.00,,,0.00,weatherlink.com 1.10,2013-02-07 14:02:00,
2013-02-07 09:17:00,36.6,25.0,30.16,South,181,5.0,8.0,63,0.00,,,0.00,weatherlink.com 1.10,2013-02-07 14:17:00,
2013-02-07 09:32:00,35.9,25.0,30.15,South,184,4.0,10.0,65,0.00,,,0.00,weatherlink.com 1.10,2013-02-07 14:32:00,
2013-02-07 09:47:00,36.0,25.0,30.15,South,183,5.0,9.0,65,0.00,,,0.00,weatherlink.com 1.10,2013-02-07 14:47:00,
2013-02-07 10:02:00,35.5,26.0,30.16,South,186,4.0,7.0,68,0.00,,,0.00,weatherlink.com 1.10,2013-02-07 15:02:00,
2013-02-07 10:17:00,35.3,26.0,30.15,South,183,5.0,9.0,68,0.00,,,0.00,weatherlink.com 1.10,2013-02-07 15:17:00,
2013-02-07 10:33:00,35.8,26.0,30.14,South,184,5.0,9.0,68,0.00,,,0.00,weatherlink.com 1.10,2013-02-07 15:33:00,
2013-02-07 10:48:00,36.5,26.0,30.13,South,180,5.0,6.0,67,0.00,,,0.00,weatherlink.com 1.10,2013-02-07 15:48:00,
2013-02-07 11:02:00,35.6,26.0,30.13,South,184,3.0,8.0,67,0.00,,,0.00,weatherlink.com 1.10,2013-02-07 16:02:00,
2013-02-07 11:17:00,35.7,26.0,30.13,South,183,2.0,5.0,69,0.00,,,0.00,weatherlink.com 1.10,2013-02-07 16:17:00,
2013-02-07 11:32:00,36.1,27.0,30.13,South,184,3.0,6.0,70,0.00,,,0.00,weatherlink.com 1.10,2013-02-07 16:32:00,
2013-02-07 11:47:00,36.3,28.0,30.11,South,183,4.0,6.0,71,0.00,,,0.00,weatherlink.com 1.10,2013-02-07 16:47:00,
2013-02-07 12:02:00,36.0,29.0,30.11,South,184,3.0,5.0,75,0.00,,,0.00,weatherlink.com 1.10,2013-02-07 17:02:00,
2013-02-07 12:17:00,35.3,30.0,30.10,South,183,3.0,5.0,80,0.00,,,0.00,weatherlink.com 1.10,2013-02-07 17:17:00,
2013-02-07 12:33:00,34.3,31.0,30.10,South,184,4.0,5.0,86,0.00,,,0.00,weatherlink.com 1.10,2013-02-07 17:33:00,
2013-02-07 12:48:00,33.9,31.0,30.09,South,183,2.0,4.0,89,0.01,,,0.01,weatherlink.com 1.10,2013-02-07 17:48:00,
2013-02-07 13:02:00,33.9,32.0,30.08,South,183,2.0,5.0,91,0.02,,,0.02,weatherlink.com 1.10,2013-02-07 18:02:00,
2013-02-07 13:18:00,33.5,32.0,30.08,South,183,2.0,3.0,92,0.04,,,0.04,weatherlink.com 1.10,2013-02-07 18:18:00,
2013-02-07 13:33:00,33.1,31.0,30.07,South,183,1.0,2.0,93,0.06,,,0.06,weatherlink.com 1.10,2013-02-07 18:33:00,
2013-02-07 13:48:00,33.3,32.0,30.07,South,183,2.0,3.0,94,0.09,,,0.10,weatherlink.com 1.10,2013-02-07 18:48:00,
2013-02-07 14:03:00,33.6,32.0,30.06,South,183,2.0,3.0,93,0.11,,,0.13,weatherlink.com 1.10,2013-02-07 19:03:00,
2013-02-07 14:18:00,33.8,32.0,30.06,South,183,3.0,5.0,94,0.10,,,0.14,weatherlink.com 1.10,2013-02-07 19:18:00,
2013-02-07 14:33:00,33.9,32.0,30.06,South,183,2.0,2.0,94,0.10,,,0.16,weatherlink.com 1.10,2013-02-07 19:33:00,
2013-02-07 14:48:00,34.2,33.0,30.05,South,183,2.0,3.0,94,0.08,,,0.18,weatherlink.com 1.10,2013-02-07 19:48:00,
2013-02-07 15:03:00,34.4,33.0,30.05,South,183,3.0,5.0,95,0.05,,,0.18,weatherlink.com 1.10,2013-02-07 20:03:00,
2013-02-07 15:18:00,34.2,33.0,30.05,South,183,3.0,3.0,95,0.06,,,0.20,weatherlink.com 1.10,2013-02-07 20:18:00,
2013-02-07 15:33:00,33.9,33.0,30.04,South,184,1.0,4.0,95,0.05,,,0.21,weatherlink.com 1.10,2013-02-07 20:33:00,
2013-02-07 15:48:00,34.1,33.0,30.04,South,183,2.0,3.0,95,0.03,,,0.21,weatherlink.com 1.10,2013-02-07 20:48:00,
2013-02-07 16:03:00,34.1,33.0,30.03,South,183,2.0,4.0,95,0.04,,,0.22,weatherlink.com 1.10,2013-02-07 21:03:00,
2013-02-07 16:33:00,34.8,34.0,30.02,South,184,4.0,7.0,96,0.03,,,0.24,weatherlink.com 1.10,2013-02-07 21:33:00,
2013-02-07 16:48:00,34.9,34.0,30.02,South,181,5.0,12.0,96,0.04,,,0.25,weatherlink.com 1.10,2013-02-07 21:48:00,
2013-02-07 17:03:00,34.7,34.0,30.01,South,186,4.0,6.0,96,0.04,,,0.26,weatherlink.com 1.10,2013-02-07 22:03:00,
2013-02-07 17:18:00,34.6,34.0,30.01,South,188,4.0,9.0,96,0.06,,,0.28,weatherlink.com 1.10,2013-02-07 22:18:00,
2013-02-07 17:33:00,34.9,34.0,30.01,South,184,5.0,8.0,96,0.05,,,0.29,weatherlink.com 1.10,2013-02-07 22:33:00,
2013-02-07 17:48:00,35.0,34.0,30.00,South,181,4.0,8.0,96,0.07,,,0.32,weatherlink.com 1.10,2013-02-07 22:48:00,
2013-02-07 18:03:00,35.1,34.0,30.00,South,183,4.0,6.0,96,0.08,,,0.34,weatherlink.com 1.10,2013-02-07 23:03:00,
2013-02-07 18:18:00,35.0,34.0,30.00,South,184,4.0,8.0,96,0.08,,,0.36,weatherlink.com 1.10,2013-02-07 23:18:00,
2013-02-07 18:33:00,35.3,34.0,29.99,South,184,3.0,6.0,96,0.08,,,0.38,weatherlink.com 1.10,2013-02-07 23:33:00,
2013-02-07 18:48:00,36.2,35.0,29.99,South,183,3.0,6.0,96,0.09,,,0.41,weatherlink.com 1.10,2013-02-07 23:48:00,
2013-02-07 19:03:00,36.3,35.0,29.99,South,183,3.0,5.0,96,0.11,,,0.45,weatherlink.com 1.10,2013-02-08 00:03:00,
2013-02-07 19:18:00,36.5,36.0,29.99,South,186,5.0,8.0,96,0.12,,,0.48,weatherlink.com 1.10,2013-02-08 00:18:00,
2013-02-07 19:33:00,36.9,36.0,29.99,South,184,4.0,10.0,96,0.11,,,0.49,weatherlink.com 1.10,2013-02-08 00:33:00,
2013-02-07 19:48:00,37.0,36.0,29.99,South,183,3.0,5.0,96,0.11,,,0.52,weatherlink.com 1.10,2013-02-08 00:48:00,
2013-02-07 20:03:00,37.1,36.0,29.98,South,183,4.0,5.0,96,0.08,,,0.53,weatherlink.com 1.10,2013-02-08 01:03:00,
2013-02-07 20:19:00,37.3,36.0,29.98,South,183,3.0,5.0,96,0.08,,,0.56,weatherlink.com 1.10,2013-02-08 01:19:00,
2013-02-07 20:33:00,37.0,36.0,29.98,South,183,3.0,4.0,96,0.08,,,0.57,weatherlink.com 1.10,2013-02-08 01:33:00,
2013-02-07 20:48:00,37.2,37.0,29.98,South,184,5.0,6.0,97,0.08,,,0.60,weatherlink.com 1.10,2013-02-08 01:48:00,
2013-02-07 21:03:00,37.2,37.0,29.98,South,184,3.0,6.0,97,0.09,,,0.62,weatherlink.com 1.10,2013-02-08 02:03:00,
2013-02-07 21:18:00,37.0,36.0,29.98,South,186,3.0,7.0,97,0.08,,,0.64,weatherlink.com 1.10,2013-02-08 02:18:00,
2013-02-07 21:33:00,36.9,36.0,29.97,South,184,4.0,6.0,97,0.07,,,0.65,weatherlink.com 1.10,2013-02-08 02:33:00,
2013-02-07 21:49:00,36.0,35.0,29.97,South,184,3.0,6.0,96,0.06,,,0.66,weatherlink.com 1.10,2013-02-08 02:49:00,
2013-02-07 22:03:00,35.8,35.0,29.96,South,188,3.0,9.0,96,0.06,,,0.68,weatherlink.com 1.10,2013-02-08 03:03:00,
2013-02-07 22:18:00,36.4,36.0,29.96,South,184,5.0,10.0,97,0.05,,,0.69,weatherlink.com 1.10,2013-02-08 03:18:00,
2013-02-07 22:33:00,36.1,35.0,29.95,South,184,6.0,9.0,97,0.04,,,0.69,weatherlink.com 1.10,2013-02-08 03:33:00,
2013-02-07 22:48:00,35.6,35.0,29.95,South,186,3.0,9.0,97,0.03,,,0.69,weatherlink.com 1.10,2013-02-08 03:48:00,
2013-02-07 23:03:00,35.2,35.0,29.95,South,184,3.0,6.0,97,0.02,,,0.70,weatherlink.com 1.10,2013-02-08 04:03:00,
2013-02-07 23:19:00,35.3,35.0,29.94,South,183,5.0,7.0,97,0.01,,,0.70,weatherlink.com 1.10,2013-02-08 04:19:00,
2013-02-07 23:34:00,35.5,35.0,29.94,South,183,3.0,6.0,97,0.01,,,0.70,weatherlink.com 1.10,2013-02-08 04:34:00,
2013-02-07 23:49:00,35.6,35.0,29.93,South,184,4.0,8.0,97,0.00,,,0.70,weatherlink.com 1.10,2013-02-08 04:49:00,